User: anonymous   Login
Location: Hale Hill Observatory
(39.3806°N, 86.8431°W)
Time: 04:27:06
(UTC-04:00)
Language:

Cosmos 990 Rocket - Orbit

View from above orbital plane
View from above orbital plane
View from above satellite
View from above satellite

Ground track
Ground track

The orbit data is extracted from the following two-line orbital elements,

1 10677U 78019B   15216.24310563  .00000116  00000-0  45183-4 0  9998
2 10677 074.0386 123.0928 0015114 001.2051 358.9138 14.39881001964198
Epoch (UTC): 04 August 2015 05:50:04
Eccentricity: 0.0015114
inclination: 74.0386°
perigee height: 748 km
apogee height: 769 km
right ascension of ascending node: 123.0928°
argument of perigee: 1.2051°
revolutions per day: 14.39881001
mean anomaly at epoch: 358.9138°
orbit number at epoch: 96419

The dashed part of the orbit path shows where the satellite is in the earth's shadow,  

DLR